カタログに戻る

COSMOS 1275 DEB

運用中PO
NORAD 12758·DEBRIS·🇷🇺 Russia

打ち上げ Jun 4, 1981 から Plesetsk Cosmodrome

Loading…

次のパス (今後24時間)

TLE

最新Source: Space-Track

元期: Sep 14, 2026, 08:04 UTC

1 12758U 81053DB  26257.33626640  .00000415  00000-0  36593-3 0  9991
2 12758  82.8646  18.5111 0055252 310.3674  77.8178 13.82370809263986

AllMySatでCOSMOS 1275 DEBをリアルタイム追跡

Download on the App Store